User: anonymous   Login
Location: *
(51.8167°N, 12.5000°E)
Time: 22:49:48
(UTC+00:00)
Language:

Cosmos 1954 Rocket - Orbit

View from above orbital plane
View from above orbital plane
View from above satellite
View from above satellite

Ground track
Ground track

The orbit data is extracted from the following two-line orbital elements,

1 19257U 88053B   19315.00370514  .00000011  00000-0  12239-4 0  9990
2 19257  74.0511  44.4828 0019302  76.8460 336.2165 14.37445492644755
Epoch (UTC): 11 November 2019 00:05:20
Eccentricity: 0.0019302
inclination: 74.0511°
perigee height: 753 km
apogee height: 781 km
right ascension of ascending node: 44.4828°
argument of perigee: 76.8460°
revolutions per day: 14.37445492
mean anomaly at epoch: 336.2165°
orbit number at epoch: 64475

The dashed part of the orbit path shows where the satellite is in the earth's shadow,  

DLR